Date String (YYYY-MM-DD hh:mm:ss) UTC,Instrument flags,Ambient pressure (hPa),Sample flow (lpm),Bypass flow (lpm),Sample temperature (°C),Ambient temperature (°C),ASC tube jacket temperature (°C),LED temperature (°C),Box temperature (°C),Sample RH (%),Span deviation,Mass concentration (μg/m³),Mass concentration (μg/m³),Mass concentration (μg/m³)
DateTimeUTC,F1_M11,P_M11,Q1_M11,Q2_M11,T1_M11,T2_M11,T3_M11,T4_M11,T5_M11,U1_M11,ZSPAN_M11,X0_M11,X2_M11,X1_M11
2023-05-17 03:00:00,,0833.3,4.99,0.00,29.1,27.4,00.0,37.6,30.6,23.7,0000.0,0009.86,0004.43,0003.27
2023-05-17 03:01:00,,0833.4,4.99,0.00,29.1,27.4,00.0,37.6,30.6,23.6,0000.0,0009.74,0004.44,0003.27
2023-05-17 03:02:00,,0833.3,5.00,0.00,29.1,27.4,00.0,37.6,30.6,23.5,0000.0,0009.90,0004.47,0003.27
2023-05-17 03:03:00,,0833.4,5.00,0.00,29.1,27.4,00.0,37.6,30.6,23.5,0000.0,0009.59,0004.46,0003.26
2023-05-17 03:04:00,,0833.4,5.00,0.00,29.1,27.4,00.0,37.6,30.6,23.5,0000.0,0009.70,0004.50,0003.27
2023-05-17 03:05:00,,0833.4,5.00,0.00,29.1,27.4,00.0,37.6,30.6,23.5,0000.0,0009.60,0004.48,0003.26
2023-05-17 03:06:00,,0833.4,5.00,0.00,29.1,27.4,00.0,37.6,30.6,23.6,0000.0,0009.35,0004.49,0003.26
2023-05-17 03:07:00,,0833.4,5.00,0.00,29.1,27.4,00.0,37.6,30.6,23.5,0000.0,0010.12,0004.45,0003.26
2023-05-17 03:08:00,,0833.4,5.00,0.00,29.0,27.4,00.0,37.6,30.6,23.6,0000.0,0010.45,0004.47,0003.26
2023-05-17 03:09:00,,0833.4,5.00,0.00,29.0,27.4,00.0,37.5,30.6,23.7,0000.0,0010.32,0004.44,0003.25
2023-05-17 03:10:00,,0833.4,5.00,0.00,29.0,27.4,00.0,37.5,30.6,23.7,0000.0,0010.60,0004.44,0003.25
2023-05-17 03:11:00,,0833.4,5.00,0.00,29.0,27.4,00.0,37.5,30.6,23.7,0000.0,0010.70,0004.45,0003.27
2023-05-17 03:12:00,,0833.4,4.99,0.00,29.0,27.4,00.0,37.5,30.6,23.8,0000.0,0011.05,0004.46,0003.27
2023-05-17 03:13:00,,0833.4,5.00,0.00,29.0,27.4,00.0,37.5,30.5,23.9,0000.0,0011.45,0004.48,0003.27
2023-05-17 03:14:00,,0833.4,5.00,0.00,29.0,27.4,00.0,37.5,30.5,24.0,0000.0,0011.51,0004.52,0003.28
2023-05-17 03:15:00,,0833.5,5.00,0.00,29.0,27.4,00.0,37.5,30.5,24.1,0000.0,0011.66,0004.58,0003.29
2023-05-17 03:16:00,,0833.5,5.01,0.00,29.0,27.4,00.0,37.5,30.5,24.3,0000.0,0011.93,0004.63,0003.29
2023-05-17 03:17:00,,0833.4,5.01,0.00,29.0,27.4,00.0,37.5,30.5,24.2,0000.0,0012.07,0004.64,0003.29
2023-05-17 03:18:00,,0833.4,5.00,0.00,29.0,27.4,00.0,37.5,30.5,24.1,0000.0,0011.26,0004.63,0003.29
2023-05-17 03:19:00,,0833.4,4.99,0.00,29.0,27.3,00.0,37.5,30.5,24.2,0000.0,0010.86,0004.61,0003.28
2023-05-17 03:20:00,,0833.5,4.99,0.00,29.0,27.3,00.0,37.5,30.5,24.2,0000.0,0010.78,0004.59,0003.27
2023-05-17 03:21:00,,0833.4,5.01,0.00,29.0,27.3,00.0,37.5,30.5,24.3,0000.0,0010.83,0004.62,0003.26
2023-05-17 03:22:00,,0833.4,5.00,0.00,29.0,27.3,00.0,37.5,30.5,24.2,0000.0,0010.71,0004.61,0003.26
2023-05-17 03:23:00,,0833.5,5.00,0.00,29.0,27.3,00.0,37.5,30.5,24.2,0000.0,0010.47,0004.59,0003.25
2023-05-17 03:24:00,,0833.5,5.00,0.00,29.0,27.3,00.0,37.5,30.5,24.3,0000.0,0010.13,0004.59,0003.25
2023-05-17 03:25:00,,0833.5,5.01,0.00,29.0,27.3,00.0,37.5,30.5,24.3,0000.0,0010.43,0004.56,0003.24
2023-05-17 03:26:00,,0833.5,5.00,0.00,29.0,27.3,00.0,37.4,30.5,24.3,0000.0,0010.43,0004.49,0003.23
2023-05-17 03:27:00,,0833.5,5.00,0.00,29.0,27.3,00.0,37.4,30.4,24.2,0000.0,0010.85,0004.46,0003.22
2023-05-17 03:28:00,,0833.5,5.01,0.00,28.9,27.3,00.0,37.4,30.4,24.3,0000.0,0010.87,0004.49,0003.22
2023-05-17 03:29:00,,0833.5,5.00,0.00,28.9,27.3,00.0,37.4,30.4,24.4,0000.0,0011.01,0004.47,0003.24
2023-05-17 03:30:00,,0833.6,5.00,0.00,28.9,27.3,00.0,37.4,30.4,24.3,0000.0,0011.03,0004.46,0003.25
2023-05-17 03:31:00,,0833.6,5.00,0.00,28.9,27.3,00.0,37.4,30.4,24.3,0000.0,0011.04,0004.47,0003.26
2023-05-17 03:32:00,,0833.6,5.00,0.00,28.9,27.3,00.0,37.4,30.4,24.4,0000.0,0011.00,0004.45,0003.29
2023-05-17 03:33:00,,0833.6,4.99,0.00,28.9,27.3,00.0,37.4,30.4,24.4,0000.0,0011.02,0004.47,0003.30
2023-05-17 03:34:00,,0833.6,4.99,0.00,28.9,27.3,00.0,37.4,30.4,24.5,0000.0,0011.01,0004.47,0003.31
2023-05-17 03:35:00,,0833.6,5.00,0.00,28.9,27.2,00.0,37.4,30.4,24.5,0000.0,0011.00,0004.51,0003.33
2023-05-17 03:36:00,,0833.7,5.00,0.00,28.9,27.3,00.0,37.4,30.4,24.6,0000.0,0010.38,0004.57,0003.34
2023-05-17 03:37:00,,0833.7,5.00,0.00,28.9,27.3,00.0,37.4,30.4,24.5,0000.0,0010.46,0004.66,0003.36
2023-05-17 03:38:00,,0833.7,5.00,0.00,28.9,27.3,00.0,37.4,30.4,24.6,0000.0,0010.04,0004.70,0003.38
2023-05-17 03:39:00,,0833.7,5.00,0.00,28.9,27.3,00.0,37.4,30.4,24.6,0000.0,0009.80,0004.69,0003.40
2023-05-17 03:40:00,,0833.7,5.00,0.00,28.9,27.3,00.0,37.4,30.4,24.5,0000.0,0010.53,0004.77,0003.41
2023-05-17 03:41:00,,0833.7,5.00,0.00,28.9,27.3,00.0,37.4,30.4,24.6,0000.0,0010.64,0004.84,0003.43
2023-05-17 03:42:00,,0833.7,4.99,0.00,28.9,27.3,00.0,37.4,30.5,24.6,0000.0,0011.36,0004.86,0003.42
2023-05-17 03:43:00,,0833.7,4.98,0.00,28.9,27.3,00.0,37.4,30.5,24.6,0000.0,0011.43,0004.92,0003.43
2023-05-17 03:44:00,,0833.7,5.00,0.00,28.9,27.4,00.0,37.4,30.5,24.8,0000.0,0011.46,0004.97,0003.43
2023-05-17 03:45:00,,0833.7,5.00,0.00,29.0,27.4,00.0,37.4,30.6,24.7,0000.0,0011.63,0005.04,0003.44
2023-05-17 03:46:00,,0833.7,5.00,0.00,29.0,27.5,00.0,37.4,30.6,24.6,0000.0,0011.66,0005.07,0003.44
2023-05-17 03:47:00,,0833.7,5.00,0.00,29.0,27.6,00.0,37.4,30.6,24.6,0000.0,0011.52,0005.01,0003.45
2023-05-17 03:48:00,,0833.6,5.01,0.00,29.0,27.6,00.0,37.4,30.7,24.5,0000.0,0011.21,0004.90,0003.44
2023-05-17 03:49:00,,0833.6,5.00,0.00,29.0,27.7,00.0,37.4,30.7,24.5,0000.0,0011.21,0004.87,0003.45
2023-05-17 03:50:00,,0833.6,4.99,0.00,29.1,27.7,00.0,37.4,30.7,24.4,0000.0,0011.28,0004.90,0003.44
2023-05-17 03:51:00,,0833.5,4.99,0.00,29.1,27.7,00.0,37.4,30.7,24.4,0000.0,0010.50,0004.85,0003.43
2023-05-17 03:52:00,,0833.5,5.00,0.00,29.1,27.8,00.0,37.4,30.7,24.4,0000.0,0010.71,0004.83,0003.42
2023-05-17 03:53:00,,0833.5,5.01,0.00,29.1,27.8,00.0,37.4,30.7,24.3,0000.0,0010.35,0004.87,0003.43
2023-05-17 03:54:00,,0833.5,5.00,0.00,29.1,27.8,00.0,37.5,30.7,24.3,0000.0,0010.26,0004.85,0003.43
2023-05-17 03:55:00,,0833.6,5.00,0.00,29.2,27.8,00.0,37.5,30.8,24.2,0000.0,0010.28,0004.84,0003.42
2023-05-17 03:56:00,,0833.6,5.00,0.00,29.2,27.8,00.0,37.5,30.8,24.2,0000.0,0010.23,0004.81,0003.42
2023-05-17 03:57:00,,0833.7,5.00,0.00,29.2,27.8,00.0,37.5,30.8,24.2,0000.0,0010.65,0004.78,0003.44
2023-05-17 03:58:00,,0833.7,4.99,0.00,29.2,27.8,00.0,37.5,30.8,24.2,0000.0,0010.88,0004.82,0003.44
2023-05-17 03:59:00,,0833.7,5.00,0.00,29.2,27.9,00.0,37.5,30.8,24.2,0000.0,0011.23,0004.95,0003.46
